找回密码
 注册
9月份电巢直播计划

推荐主题

[仿真讨论] INA02186低温噪声放大器的spice模型 1人参与 新人帖 New 季天皓 2020-9-18 10:28 1 56 land 2020-9-18 11:27
[仿真讨论] 使用电源完整性分析解决pcb的压降问题 2人参与 New Avenger 2020-9-17 18:16 3 141 Kevin_BMS 2020-9-22 14:08
[仿真讨论] Embleema将通过区块链技术来保证医疗数据的完整性和可追溯性 1人参与 New sss71771 2020-9-17 18:11 1 70 lingling555 2020-9-17 18:29
[仿真讨论] 千兆位数据传输中需考虑的信号完整性设计问题 1人参与 New QqWw11 2020-9-17 13:19 1 75 Zjianeng 2020-9-17 15:10
[仿真讨论] 求助:用sigrity仿真DDR4的时候,memory导入IBIS后,提示No power pin connected! 6人参与 New liling92zdh 2020-9-17 12:37 8 166 liling92zdh 2020-9-18 11:20
[仿真讨论] DSP+FPGA结构的系统信号完整性问题及解决方案 1人参与 attach_img New fordies1 2020-9-17 11:27 1 129 QqWw11 2020-9-17 13:14
[仿真讨论] 楷登电子发布增强型 Cadence® Voltus™IC 电源完整性解决方案 1人参与 Avenger 2020-9-16 19:31 1 109 wuke8 2020-9-16 19:43
[仿真讨论] 电源的信号完整性分析流程 1人参与 sss71771 2020-9-16 19:26 1 121 homn 2020-9-16 19:43
[仿真讨论] 如图所示,划圈内的是VRM模块,对吗 5人参与 attach_img liling92zdh 2020-9-16 16:42 6 121 xanafahd 2020-9-22 05:29
[资料下载] 信号反射噪声的改善方法及仿真验证 1人参与 attachment zmmdmn 2020-9-16 10:59 1 49 QqWw11 2020-9-16 13:09
[仿真讨论] DDR的odt为什么有这么多可选值? 4人参与 新人帖 bitfz 2020-9-16 10:08 5 75 bitfz 2020-9-17 15:53
[资料下载] 一种高速背板连接器的设计 5人参与 attachment weqewq 2020-9-16 09:55 5 81 heliu0017 2020-9-22 10:44
[仿真讨论] Mentor Graphics新版 HyperLynx 集信号和电源完整性、3D电磁解析和 快速规则检查于... 2人参与 Avenger 2020-9-15 18:27 2 101 lhliu6 2020-9-16 09:05
[仿真讨论] 信号完整性中信号上升时间与带宽研究 1人参与 sss71771 2020-9-15 18:17 1 77 bookbook 2020-9-15 18:35
[仿真讨论] DDR仿真的时候CKT文件怎么来的,谢谢 3人参与 liling92zdh 2020-9-15 11:33 3 72 liling92zdh 2020-9-16 17:19
[仿真讨论] 如何使噪声在到达连接器以前,降至最小? 3人参与 srilri2 2020-9-15 11:24 3 42 谢谢侬 2020-9-15 13:18
[仿真讨论] 超出范围电流测量设计方案 2人参与 Zjianeng 2020-9-15 10:54 2 52 clp783 2020-9-15 16:30
[仿真讨论] MRAM可在恶劣环境下实现数据完整性和可靠性 2人参与 Avenger 2020-9-14 18:59 2 79 Bill168 2020-9-15 08:28
[仿真讨论] 国产特斯拉32万8,造车新势力不怕他! 4人参与 sss71771 2020-9-14 18:52 4 100 clp783 2020-9-15 16:31
[Ansys仿真] SIWAVE与icepak联合仿真问题 2人参与 attach_img zf_1108 2020-9-14 18:16 2 94 srilri2 2020-9-15 09:34
[资料下载] 示波器常见的触发方式整理 2人参与 attach_img senlenced3 2020-9-14 11:05 2 86 xiáò虫 2020-9-14 19:10
[资料下载] 振铃型干扰信号完整性补偿方法研究 2人参与 attachment srilri2 2020-9-14 09:45 2 61 zhcchz 2020-9-17 23:40
[Ansys仿真] HFSS 3D Layout 蚀刻参数设置不了保存了打开还是之前的值? 1人参与 attach_img hyxs714154 2020-9-13 21:05 1 83 zouliang 2020-9-14 09:03
[Cadence Sigrity] 求助:DDR3地址线仿真出现不能收敛,是什么原因?谢谢! 4人参与 norris 2020-9-13 13:18 4 112 dzkcool 2020-9-16 12:14
[仿真讨论] 关于信号完整性的分析与研究 1人参与 ononsiiii 2020-9-11 17:35 1 154 zhishide7 2020-9-11 17:43
下一页 »
还可输入 80 个字符
您需要登录后才可以发帖 登录 | 注册

本版积分规则

关闭

推荐内容上一条 /1 下一条

EDA365公众号

关于我们|手机版|EDA365电子论坛网 ( 粤ICP备18020198号 )

GMT+8, 2020-9-24 08:39 , Processed in 0.093750 second(s), 13 queries , Gzip On.

深圳市墨知创新科技有限公司

地址:深圳市南山区科技生态园2栋A座805 电话:19925233282

返回顶部 返回版块